Location: �perlecques
(50.8057°N, 2.1521°E)
Time: 08:41:24
(UTC+00:00)

deb Explorer IX - All Passes

Search period start: 24 July 2021 00:00
Search period end: 03 August 2021 00:00
Orbit: 542 x 1096 km, 38.8° (Epoch: 23 July)

Date Brightness Start Highest point End Pass type
(mag) Time Alt. Az. Time Alt. Az. Time Alt. Az.
24 Jul - 15:21:14 10° S 15:24:43 15° SSE 15:28:26 10° ESE daylight
24 Jul - 17:05:09 10° SW 17:10:33 28° SSE 17:16:23 10° ESE daylight
24 Jul - 18:51:01 10° WSW 18:56:47 29° S 19:02:51 10° SE daylight
24 Jul - 20:38:12 10° WSW 20:42:53 19° SSW 20:47:38 10° SSE visible
25 Jul - 14:57:21 10° S 15:00:37 15° SSE 15:04:05 10° ESE daylight
25 Jul - 16:41:09 10° SW 16:46:24 27° SSE 16:52:06 10° ESE daylight
25 Jul - 18:26:58 10° WSW 18:32:37 29° S 18:38:37 10° SE daylight
25 Jul - 20:14:05 10° WSW 20:18:42 19° SSW 20:23:26 10° SSE daylight
26 Jul - 14:33:30 10° S 14:36:29 14° SSE 14:39:41 10° ESE daylight
26 Jul - 16:17:10 10° SW 16:22:14 26° SSE 16:27:48 10° ESE daylight
26 Jul - 18:02:54 10° WSW 18:08:25 28° S 18:14:20 10° SE daylight
26 Jul - 19:49:58 10° WSW 19:54:31 19° SSW 19:59:11 10° SSE daylight
27 Jul - 14:09:40 10° S 14:12:23 13° SSE 14:15:16 10° ESE daylight
27 Jul - 15:53:11 10° SW 15:58:05 26° SSE 16:03:29 10° ESE daylight
27 Jul - 17:38:52 10° WSW 17:44:13 28° S 17:50:03 10° SE daylight
27 Jul - 19:25:53 10° WSW 19:30:19 18° SSW 19:34:56 10° SSE daylight
28 Jul - 13:45:51 10° S 13:48:16 13° SSE 13:50:49 10° SE daylight
28 Jul - 15:29:13 10° SW 15:33:56 25° SSE 15:39:09 10° ESE daylight
28 Jul - 17:14:50 10° WSW 17:20:02 27° S 17:25:43 10° SE daylight
28 Jul - 19:01:48 10° WSW 19:06:07 18° SSW 19:10:36 10° SSE daylight
29 Jul - 13:22:06 10° S 13:24:09 12° SSE 13:26:19 10° SE daylight
29 Jul - 15:05:15 10° SW 15:09:46 24° SSE 15:14:47 10° ESE daylight
29 Jul - 16:50:49 10° WSW 16:55:51 27° S 17:01:23 10° SE daylight
29 Jul - 18:37:45 10° WSW 18:41:54 18° SSW 18:46:16 10° SSE daylight
30 Jul - 12:58:23 10° SSE 13:00:02 11° SSE 13:01:45 10° SE daylight
30 Jul - 14:41:18 10° SW 14:45:36 23° SSE 14:50:26 10° ESE daylight
30 Jul - 16:26:49 10° WSW 16:31:39 26° S 16:37:01 10° SE daylight
30 Jul - 18:13:42 10° WSW 18:17:41 17° SSW 18:21:55 10° SSE daylight
31 Jul - 12:34:48 10° SSE 12:35:55 11° SSE 12:37:05 10° SE daylight
31 Jul - 14:17:21 10° SW 14:21:27 22° SSE 14:26:04 10° ESE daylight
31 Jul - 16:02:48 10° WSW 16:07:27 25° S 16:12:39 10° SE daylight
31 Jul - 17:49:41 10° WSW 17:53:28 17° SSW 17:57:31 10° SSE daylight
01 Aug - 13:53:24 10° SW 13:57:18 22° SSE 14:01:40 10° ESE daylight
01 Aug - 15:38:48 10° WSW 15:43:16 24° S 15:48:15 10° SE daylight
01 Aug - 17:25:40 10° WSW 17:29:15 16° SSW 17:33:05 10° SSE daylight
02 Aug - 13:29:26 10° SW 13:33:10 21° SSE 13:37:17 10° ESE daylight
02 Aug - 15:14:48 10° WSW 15:19:05 23° S 15:23:51 10° SE daylight
02 Aug - 17:01:41 10° WSW 17:05:02 15° SSW 17:08:38 10° SSE daylight
